Regional Weather Roundup
Issued by NWS Portland, ME

Home | Current Version | Previous Version | Text Only | Print | Product List | Glossary On
Versions: 1 2 3 4 5 6 7 8 9 10 11 12 13 14 15 16 17 18 19 20 21 22 23 24 25 26 27 28 29 30 31 32 33 34 35 36 37 38 39 40 41 42 43 44 45 46 47 48 49 50
000
ASUS41 KGYX 300610
RWRGYX
WEATHER ROUNDUP FOR MAINE AND NEW HAMPSHIRE
NATIONAL WEATHER SERVICE GRAY ME
200 AM EDT THU JUL 30 2015

MEZ002-005-006-010-012-015-018-020-021-024-026-027-029-300700-
MAINE

CITY           SKY/WX    TMP DP  RH WIND       PRES   REMARKS
PORTLAND       CLEAR     69  67  93 CALM      29.86F
6HR MIN TEMP:  67; 6HR MAX TEMP:  76; 6HR PCP: TRACE;

SANFORD        CLEAR     66  63  88 CALM      29.88S
BAR HARBOR     CLEAR     63  63 100 NW3       29.87F
WISCASSET      PTCLDY    65  64  97 CALM      29.87F
6HR MIN TEMP:  65; 6HR MAX TEMP:  78;

ROCKLAND       CLEAR     63  61  94 CALM      29.86S
FRYEBURG       PTCLDY    66  66 100 CALM      29.88F
6HR MIN TEMP:  66; 6HR MAX TEMP:  76;

LEWISTONAUBURN MOCLDY    66  64  94 CALM      29.87S VSB 1/2
AUGUSTA        CLEAR     69  67  93 CALM      29.87S
6HR MIN TEMP:  67; 6HR MAX TEMP:  72;

WATERVILLE     CLEAR     66  63  88 CALM      29.85S
BANGOR         CLEAR     65  63  93 SW3       29.87F
6HR MIN TEMP:  64; 6HR MAX TEMP:  78;

GREENVILLE       N/A     67  57  70 SE5       29.90S
6HR MIN TEMP:  66; 6HR MAX TEMP:  73;

MILLINOCKET    CLEAR     61  59  93 CALM      29.90F
6HR MIN TEMP:  61; 6HR MAX TEMP:  77;

HOULTON        CLEAR     53  51  93 CALM      29.88F
6HR MIN TEMP:  52; 6HR MAX TEMP:  68;

PRESQUE ISLE   CLEAR     54  50  87 CALM      29.89F
6HR MIN TEMP:  54; 6HR MAX TEMP:  72;

FRENCHVILLE    CLEAR     57  54  89 N3        29.89F
6HR MIN TEMP:  57; 6HR MAX TEMP:  69;

CARIBOU        CLEAR     56  54  93 CALM      29.89F
6HR MIN TEMP:  56; 6HR MAX TEMP:  72;

$$

NHZ002-005-008-009-011-012-014-300700-
NEW HAMPSHIRE

CITY           SKY/WX    TMP DP  RH WIND       PRES   REMARKS
PORTSMOUTH     CLEAR     75  68  80 W5        29.85S
ROCHESTER      CLEAR     72  66  81 CALM      29.87S
6HR MIN TEMP:  71; 6HR MAX TEMP:  83;

MANCHESTER     CLEAR     75  68  78 S7        29.87S
6HR MIN TEMP:  75; 6HR MAX TEMP:  88;

CONCORD        CLEAR     70  66  87 CALM      29.89S
6HR MIN TEMP:  69; 6HR MAX TEMP:  87;

LACONIA        CLEAR     70  66  88 SW3       29.88S
PLYMOUTH       MOCLDY    65  65 100 CALM      29.90S FOG
BERLIN         FOG       65  63  93 CALM      29.92S VSB 1/4
6HR MIN TEMP:  64; 6HR MAX TEMP:  80;

WHITEFIELD     CLEAR     64  62  93 CALM      29.91S
6HR MIN TEMP:  64; 6HR MAX TEMP:  79;

JAFFREY        CLEAR     67  65  93 S3        29.94F
6HR MIN TEMP:  66; 6HR MAX TEMP:  80;

KEENE          CLEAR     66  61  82 CALM      29.92S
LEBANON        CLEAR     66  63  90 CALM      29.89F
6HR MIN TEMP:  66; 6HR MAX TEMP:  79;

MT WASHINGTON  PTCLDY    56  55  95 W24         N/A
6HR MIN TEMP:  56; 6HR MAX TEMP:  58;

$$

VTZ005-007-008-300700-
VERMONT

CITY           SKY/WX    TMP DP  RH WIND       PRES   REMARKS
ST JOHNSBURY     N/A     69  66  90 MISG      29.88S
MONTPELIER     CLEAR     65  63  93 CALM      29.94F
BURLINGTON     CLEAR     72  68  87 CALM      29.86S
$$

MAZ007-012-024-CTZ003-RIZ002-NYZ038-NYZ072-300700-
SOUTHERN NEW ENGLAND AND NY

CITY           SKY/WX    TMP DP  RH WIND       PRES   REMARKS
BOSTON         CLEAR     79  67  66 SW10      29.89S
WORCESTER      CLEAR     73  64  73 W9        29.94F
NANTUCKET      CLEAR     71  69  93 SW8       29.93S FOG
PROVIDENCE     CLEAR     76  69  79 W9        29.91F
HARTFORD       CLEAR     75  67  76 S6        29.90S
ALBANY         PTCLDY    74  66  76 S5        29.89S
NEW YORK CITY  PTCLDY    82  71  69 SW10      29.92S
$$

ANZ081-ANZ082-ANZ150-NHZ014-MEZ023>029-300700-
COASTAL MARINE OBSERVATIONS

STATION/POSITION TIME  TEMP    WIND        PRES    WAVE
                       AIR SEA DIR/SP/G            HT/PER
                 (UTC) (F)     (DEG/KT/KT) (MB)    (FT/S)
MOUNT DESERT ROC 0600   62      60/  1/  2 1011.6F
MATINICUS ROCK   0500   63      40/  6/  7 1011.5R
ISLE OF SHOALS   0500   79     240/ 10/ 11 1010.8F
JEFFREYS LEDGE   0503      67                N/A     3/ 8
CASHES LEDGE BUO 0550   68                 1011.0F   3/ 8
GEORGES BANK BUO 0550   66 67  250/ 10/ 12 1012.9F   4/10
$$

.............KEY..............
   WCI - WIND CHILL
   TC  - TEMPERATURE IN CELSIUS
   VSB - VISIBILITY IN MILES
   HX  - HEAT INDEX
   FAIR- INDICATES FEW OR NO CLOUDS BELOW 12,000 FT, WITH NO
         SIGNIFICANT WEATHER AND/OR OBSTRUCTIONS TO VISIBILITY.





USA.gov is the U.S. government's official web portal to all federal, state and local government web resources and services.